SL-12 R/B(AUX MOTOR), 33472

Orbit data source: Space-Track

SL-12 R/B(AUX MOTOR), 33472 is space debris in HEO originally from a launch on Thu, 25 Dec 2008 UTC launched from the Tyuratam Missile And Space Complex (TTMTR). Debris objects in space refer to the collection of defunct objects orbiting the Earth. Examples of debris include non-operational satellites, rocket bodies, and fragments generated from explosions, collisions, or faulty payload assembly.

Loading next visibility...
Identifier
33472, 2008-067G
Orbit
HEO
Country
Flag of CISCIS
Related business
Manufacturer
RKKE
Mission
Spacecraft
Bus & Motor
SOZ, Unknown motor
Mass
56 kg wet, 56 kg dry
Launch date (UTC)
2008-12-25 (17 years ago)
Launch vehicle
Unknown
Launch site
Tyuratam Missile And Space Complex (TTMTR)
Object type
Payload
Rocket body
Debris
Shape & HBR
Cyl, 0.6 m
Radar Cross Section
0.660 m², Medium (>0.1 m² and < 1m²)

Expand to show TLE details & history
Last TLE update: 1 week ago

TLE from 1 week ago
0 SL-12 R/B(AUX MOTOR)
1 33472U 08067G   26119.85792670  .00000054  00000-0  16756-3 0  9990
2 33472  64.9879  79.8727 5564816 281.0850  23.9997  4.40027337269739
Epoch: 2026-04-29T20:35Z
TLE epoch observation values (Epoch: 2026-04-29T20:35:24.866Z)
Latitude
-0.00004°
Longitude
-86.81447°
Altitude
3,441.636 km
Speed
7.474 km/s
True Right ascension
05h 19m 24s
True Declination
0° 00' 00"
Sunlit
Object was in daylight at epoch
Visualization orbit readout
Latitude
Unknown
Longitude
Unknown
Altitude
Unknown
Speed
Unknown
Apparent Right ascension
Unknown
Apparent Declination
Unknown
Sunlit
N/A
Visualization observer readout
Local Sidereal Time
19:11:36
Azimuth
Unknown
Elevation
Unknown
Doppler factor
Unknown
Orbital elements
Apogee altitude
18,104.7 km
Perigee altitude
598.231 km
Semi-major axis
15,729.603 km
Eccentricity
0.55648
Inclination
64.9879°
RAAN
79.8727°
Arg. of periapsis
281.085°
True anomaly
79.01185°
Mean anomaly
23.9997°
Eccentric anomaly
47.51135°
Mean motion
1.10019 °/min
Orbital period
327.22 mins
BSTAR
0.00016756
Loading maneuver chart data...
Computing Atmospheric mass density...
Loading historical data...
Loading historical data...
Loading historical data...
Loading historical data...
Loading historical data...
Loading historical data...
Loading historical data...

Documentation

Showing up to 5 results
|